| time (UTC) | temp C | wind direction | speed KPH | gust KPH | rain 1hr cm | rain 24hr cm | rain mn cm | humidity % | barometer mb |
| 20260904035451 | 20 | 221 | 17.7 | 27.4 | 0.00 | 0.00 | 0.00 | 84 | 1011.8 |
| 20260904033950 | 20 | 219 | 17.7 | 27.4 | 0.00 | 0.00 | 0.00 | 85 | 1012.0 |
| 20260904032450 | 18 | 221 | 17.7 | 27.4 | 0.00 | 0.00 | 0.00 | 85 | 1012.2 |
| 20260904030949 | 20 | 219 | 17.7 | 24.1 | 0.00 | 0.00 | 0.00 | 85 | 1012.2 |
| 20260904025449 | 18 | 220 | 12.9 | 24.1 | 0.00 | 0.00 | 0.00 | 86 | 1012.6 |
| 20260904023949 | 18 | 215 | 17.7 | 27.4 | 0.00 | 0.00 | 0.00 | 88 | 1012.8 |
| 20260904022449 | 18 | 212 | 17.7 | 27.4 | 0.00 | 0.00 | 0.00 | 88 | 1012.8 |
| 20260904020948 | 18 | 211 | 17.7 | 24.1 | 0.00 | 0.00 | 0.00 | 88 | 1013.0 |
| 20260904015448 | 18 | 212 | 12.9 | 27.4 | 0.00 | 0.00 | 0.00 | 88 | 1013.2 |
| 20260904013948 | 18 | 215 | 17.7 | 27.4 | 0.00 | 0.00 | 0.00 | 87 | 1013.4 |
| 20260904012449 | 18 | 215 | 12.9 | 24.1 | 0.00 | 0.00 | 0.00 | 88 | 1013.6 |
| 20260904010948 | 18 | 217 | 12.9 | 20.9 | 0.00 | 0.00 | 0.00 | 89 | 1013.8 |
| 20260904005448 | 18 | 218 | 12.9 | 27.4 | 0.00 | 0.00 | 0.00 | 89 | 1013.8 |
| 20260904003948 | 17 | 219 | 12.9 | 27.4 | 0.00 | 0.00 | 0.00 | 89 | 1013.9 |
| 20260904002447 | 17 | 212 | 12.9 | 17.7 | 0.00 | 0.00 | 0.00 | 89 | 1014.1 |
| 20260904000946 | 17 | 211 | 12.9 | 17.7 | 0.00 | 0.00 | 0.00 | 88 | 1014.4 |
| 20260903235447 | 17 | 211 | 9.7 | 17.7 | 0.00 | 0.00 | 0.00 | 88 | 1014.7 |
| 20260903233945 | 17 | 211 | 9.7 | 17.7 | 0.00 | 0.00 | 0.00 | 86 | 1014.9 |
| 20260903232445 | 17 | 209 | 9.7 | 17.7 | 0.00 | 0.00 | 0.00 | 85 | 1014.9 |
| 20260903230945 | 17 | 206 | 9.7 | 17.7 | 0.00 | 0.00 | 0.00 | 84 | 1015.0 |
| 20260903225445 | 17 | 205 | 9.7 | 17.7 | 0.00 | 0.00 | 0.00 | 85 | 1015.2 |
| 20260903223943 | 17 | 204 | 9.7 | 12.9 | 0.00 | 0.00 | 0.00 | 83 | 1015.3 |
| 20260903222444 | 17 | 207 | 6.4 | 9.7 | 0.00 | 0.00 | 0.00 | 85 | 1015.6 |
| 20260903220942 | 17 | 205 | 9.7 | 17.7 | 0.00 | 0.00 | 0.00 | 83 | 1015.5 |
| 20260903215443 | 17 | 209 | 9.7 | 17.7 | 0.03 | 0.00 | 0.00 | 83 | 1015.8 |
| 20260903213942 | 17 | 214 | 9.7 | 12.9 | 0.00 | 0.00 | 0.00 | 81 | 1015.9 |
| 20260903212442 | 17 | 221 | 9.7 | 17.7 | 0.00 | 0.00 | 0.00 | 80 | 1016.0 |
| 20260903210942 | 18 | 220 | 9.7 | 17.7 | 0.00 | 0.00 | 0.00 | 78 | 1016.0 |
| 20260903205442 | 17 | 218 | 9.7 | 17.7 | 0.00 | 0.00 | 0.00 | 79 | 1016.0 |
| 20260903203942 | 18 | 219 | 9.7 | 17.7 | 0.00 | 0.00 | 0.00 | 77 | 1016.3 |
| 20260903202442 | 18 | 217 | 9.7 | 17.7 | 0.00 | 0.00 | 0.00 | 76 | 1016.2 |
| 20260903200942 | 17 | 225 | 9.7 | 12.9 | 0.00 | 0.00 | 0.00 | 76 | 1016.4 |
| 20260903195442 | 17 | 220 | 6.4 | 12.9 | 0.00 | 0.00 | 0.00 | 75 | 1016.3 |
| 20260903193940 | 18 | 217 | 6.4 | 12.9 | 0.00 | 0.00 | 0.00 | 73 | 1016.4 |
| 20260903192441 | 18 | 226 | 9.7 | 17.7 | 0.00 | 0.00 | 0.00 | 72 | 1016.3 |
| 20260903190939 | 20 | 248 | 12.9 | 20.9 | 0.00 | 0.00 | 0.00 | 68 | 1016.3 |
| 20260903185440 | 20 | 244 | 12.9 | 20.9 | 0.00 | 0.00 | 0.00 | 68 | 1016.3 |
| 20260903183939 | 20 | 237 | 12.9 | 20.9 | 0.00 | 0.00 | 0.00 | 67 | 1016.1 |
| 20260903182438 | 20 | 260 | 9.7 | 17.7 | 0.00 | 0.00 | 0.00 | 67 | 1016.3 |
| 20260903180937 | 20 | 264 | 9.7 | 17.7 | 0.00 | 0.00 | 0.00 | 69 | 1016.3 |
| 20260903175437 | 20 | 267 | 12.9 | 24.1 | 0.00 | 0.00 | 0.00 | 66 | 1016.2 |
| 20260903173936 | 20 | 262 | 17.7 | 24.1 | 0.00 | 0.00 | 0.00 | 65 | 1015.5 |
| 20260903172435 | 20 | 268 | 17.7 | 27.4 | 0.00 | 0.00 | 0.00 | 62 | 1015.6 |
| 20260903170935 | 21 | 266 | 17.7 | 27.4 | 0.00 | 0.00 | 0.00 | 61 | 1015.6 |
| 20260903165434 | 21 | 266 | 20.9 | 38.6 | 0.00 | 0.00 | 0.00 | 60 | 1015.9 |
| 20260903163933 | 21 | 265 | 20.9 | 27.4 | 0.00 | 0.00 | 0.00 | 60 | 1015.7 |
| 20260903162434 | 21 | 268 | 20.9 | 32.2 | 0.00 | 0.00 | 0.00 | 61 | 1015.8 |
| 20260903160933 | 21 | 268 | 17.7 | 32.2 | 0.00 | 0.00 | 0.00 | 61 | 1015.8 |
| 20260903155433 | 21 | 284 | 17.7 | 27.4 | 0.00 | 0.00 | 0.00 | 63 | 1015.6 |
| 20260903153932 | 21 | 271 | 20.9 | 35.4 | 0.00 | 0.00 | 0.00 | 60 | 1015.6 |
| 20260903152432 | 21 | 278 | 17.7 | 32.2 | 0.00 | 0.00 | 0.00 | 60 | 1015.6 |
| 20260903150931 | 21 | 267 | 24.1 | 41.8 | 0.00 | 0.00 | 0.00 | 63 | 1015.5 |
| 20260903145430 | 21 | 267 | 24.1 | 41.8 | 0.00 | 0.00 | 0.00 | 63 | 1015.5 |
| 20260903143930 | 21 | 254 | 24.1 | 38.6 | 0.00 | 0.00 | 0.00 | 63 | 1015.5 |
| 20260903142429 | 22 | 250 | 20.9 | 35.4 | 0.00 | 0.00 | 0.00 | 62 | 1015.4 |
| 20260903140928 | 22 | 250 | 20.9 | 35.4 | 0.00 | 0.00 | 0.00 | 62 | 1015.4 |
| 20260903135427 | 21 | 237 | 24.1 | 38.6 | 0.00 | 0.00 | 0.00 | 70 | 1015.3 |
| 20260903133927 | 21 | 237 | 24.1 | 38.6 | 0.00 | 0.00 | 0.00 | 70 | 1015.3 |
| 20260903132427 | 21 | 237 | 24.1 | 38.6 | 0.00 | 0.00 | 0.00 | 70 | 1015.3 |
| 20260903130926 | 21 | 241 | 20.9 | 35.4 | 0.00 | 0.00 | 0.00 | 67 | 1015.2 |
| 20260903125425 | 21 | 242 | 24.1 | 38.6 | 0.00 | 0.00 | 0.00 | 68 | 1015.2 |
| 20260903123925 | 21 | 248 | 24.1 | 38.6 | 0.00 | 0.00 | 0.00 | 69 | 1015.2 |
| 20260903122424 | 20 | 241 | 24.1 | 38.6 | 0.00 | 0.00 | 0.00 | 71 | 1015.1 |
| 20260903120924 | 20 | 245 | 17.7 | 32.2 | 0.00 | 0.00 | 0.00 | 74 | 1015.1 |
| 20260903115423 | 20 | 236 | 20.9 | 32.2 | 0.00 | 0.00 | 0.00 | 79 | 1015.3 |
| 20260903113923 | 20 | 237 | 24.1 | 38.6 | 0.00 | 0.00 | 0.00 | 77 | 1015.2 |
| 20260903112422 | 20 | 239 | 12.9 | 24.1 | 0.00 | 0.00 | 0.00 | 83 | 1015.3 |
| 20260903110922 | 20 | 239 | 12.9 | 24.1 | 0.00 | 0.00 | 0.00 | 83 | 1015.3 |
| 20260903105422 | 18 | 223 | 12.9 | 24.1 | 0.00 | 0.00 | 0.00 | 90 | 1015.6 |
| 20260903103921 | 17 | 221 | 17.7 | 27.4 | 0.03 | 0.00 | 0.00 | 92 | 1015.6 |
| 20260903102420 | 17 | 221 | 17.7 | 27.4 | 0.03 | 0.00 | 0.00 | 92 | 1015.6 |
| 20260903100920 | 17 | 226 | 20.9 | 35.4 | 0.00 | 0.00 | 0.00 | 86 | 1015.4 |
| 20260903095419 | 18 | 223 | 24.1 | 38.6 | 0.00 | 0.00 | 0.00 | 84 | 1015.3 |
| 20260903093919 | 17 | 226 | 20.9 | 38.6 | 0.00 | 0.00 | 0.00 | 83 | 1015.2 |
| 20260903092418 | 18 | 225 | 24.1 | 41.8 | 0.00 | 0.00 | 0.00 | 81 | 1015.1 |
| 20260903090918 | 18 | 226 | 17.7 | 32.2 | 0.00 | 0.00 | 0.00 | 78 | 1015.2 |
| 20260903085417 | 18 | 220 | 17.7 | 27.4 | 0.00 | 0.00 | 0.00 | 79 | 1015.1 |
| 20260903083916 | 17 | 216 | 17.7 | 27.4 | 0.00 | 0.00 | 0.00 | 77 | 1015.0 |
| 20260903082416 | 17 | 214 | 17.7 | 24.1 | 0.00 | 0.00 | 0.00 | 77 | 1015.2 |
| 20260903080916 | 17 | 212 | 20.9 | 32.2 | 0.00 | 0.00 | 0.00 | 77 | 1015.1 |
| 20260903075415 | 17 | 216 | 17.7 | 27.4 | 0.00 | 0.00 | 0.00 | 78 | 1015.2 |
| 20260903073915 | 17 | 221 | 17.7 | 32.2 | 0.00 | 0.00 | 0.00 | 76 | 1015.3 |
| 20260903072415 | 17 | 213 | 20.9 | 32.2 | 0.00 | 0.00 | 0.00 | 75 | 1015.1 |
| 20260903070913 | 17 | 213 | 20.9 | 32.2 | 0.00 | 0.00 | 0.00 | 75 | 1015.1 |
| 20260903065412 | 17 | 213 | 12.9 | 27.4 | 0.00 | 0.00 | 0.00 | 75 | 1015.4 |
| 20260903063912 | 16 | 215 | 12.9 | 20.9 | 0.00 | 0.00 | 0.00 | 76 | 1015.6 |
| 20260903062411 | 16 | 217 | 12.9 | 27.4 | 0.00 | 0.00 | 0.00 | 75 | 1015.6 |
| 20260903060910 | 16 | 215 | 17.7 | 27.4 | 0.00 | 0.00 | 0.00 | 77 | 1015.6 |
| 20260903055409 | 16 | 211 | 17.7 | 24.1 | 0.00 | 0.00 | 0.00 | 77 | 1015.6 |
| 20260903053910 | 16 | 207 | 12.9 | 24.1 | 0.00 | 0.00 | 0.00 | 79 | 1015.6 |
| 20260903052409 | 15 | 213 | 12.9 | 24.1 | 0.00 | 0.00 | 0.00 | 83 | 1015.4 |
| 20260903050909 | 15 | 206 | 17.7 | 35.4 | 0.00 | 0.00 | 0.00 | 82 | 1015.5 |
| 20260903045409 | 16 | 205 | 12.9 | 24.1 | 0.00 | 0.00 | 0.00 | 78 | 1015.6 |
| 20260903043908 | 16 | 202 | 12.9 | 24.1 | 0.00 | 0.00 | 0.00 | 79 | 1015.5 |
| 20260903042408 | 16 | 204 | 12.9 | 24.1 | 0.00 | 0.00 | 0.00 | 80 | 1015.6 |
| 20260903040907 | 15 | 195 | 12.9 | 20.9 | 0.00 | 0.00 | 0.00 | 80 | 1015.9 |